C/2006 A1 ( Pojmanski )

Japanese version
Home page
Updated on February 4, 2007

---------------------------------------------------------------------

* Profile

Discovery Date January 1, 2006
Magnitude 12.5 mag
Discoverer Grzegorz Pojmanski (Warsaw University Astronomical Observatory)

* Pictures

* Orbital Elements

Epoch 2006 Mar. 6.0 TT = JDT 2453800.5
T 2006 Feb. 22.18158 TT                                 MPC
q   0.5553965            (2000.0)            P               Q
z  +0.0004167      Peri.  351.18786     -0.84018545     -0.15537510
 +/-0.0000108      Node   211.34279     -0.41646339     -0.42878217
e   0.9997686      Incl.   92.73593     -0.34734228     +0.88994631
>From 170 observations 2006 Jan. 4-Mar. 8, mean residual 0".55.

* Finding Charts

* Magnitudes Graph

        m1 =  8.6 + 5 log d + 20.0 log r  [   ,-27]  (             - 2006 Jan. 26)
        m1 =  7.5 + 5 log d +  7.5 log r  [-27, 40]  (2006 Jan. 26 - 2006 Apr.  3)
        m1 =  7.4 + 5 log d + 15.0 log r  [ 40, 80]  (2006 Apr.  3 - 2006 May  13)
        m1 = 11.5 + 5 log d + 10.0 log r  [ 80,   ]  (2006 May  13 -             )

---------------------------------------------------------------------

The orbital elements are published on M.P.E.C. 2006-E43.
The charts are made with StellaNavigator Ver.2.0 for Windows (AstroArts / ASCII).
The magnitudes graphs are made with Comet for Windows.

---------------------------------------------------------------------

Copyright(C) Seiichi Yoshida (comet@aerith.net). All rights reserved.